Regional Weather Roundup
Issued by NWS

Home | Current Version | Previous Version | Text Only | Print | Product List | Glossary On
Versions: 1 2 3 4 5 6 7 8 9 10 11 12 13 14 15 16 17 18 19 20 21 22 23 24 25 26 27 28 29 30 31 32 33 34 35 36 37 38 39 40 41 42 43 44 45 46 47 48 49 50
000
ASUS43 KFSD 281902
RWRSD

WEATHER ROUNDUP FOR SOUTH DAKOTA
NATIONAL WEATHER SERVICE SIOUX FALLS SD
200 PM CDT FRI AUG 28 2015

NOTE: "FAIR" INDICATES FEW OR NO CLOUDS BELOW 12,000 FEET WITH NO
SIGNIFICANT WEATHER AND/OR OBSTRUCTIONS TO VISIBILITY.


SDZ001>005-009-010-012>017-282000-
NORTHWEST AND NORTH CENTRAL SOUTH DAKOTA

CITY           SKY/WX    TMP DP  RH WIND       PRES   REMARKS
BUFFALO          N/A     85  51  31 W8        29.94F
MOBRIDGE       SUNNY     80  71  74 SE12      29.93F
$$

SDZ012>016-024>037-041>051-057-063-072>074-282000-
SOUTHWEST AND SOUTH CENTRAL SOUTH DAKOTA

CITY           SKY/WX    TMP DP  RH WIND       PRES   REMARKS
RAPID CTY ARPT SUNNY     84  55  36 N10       30.04F
PIERRE         MOSUNNY   77  66  68 S3        29.97S
CUSTER         SUNNY     80  44  27 N7        30.20F
ELLSWORTH AFB  SUNNY     85  51  30 N12       30.04F
PHILIP         SUNNY     77  67  71 SW6       30.00F
PINE RIDGE     SUNNY     82  54  37 NW7       30.06F
WINNER         CLOUDY    75  63  66 NE5       30.01S
$$

SDZ004>011-016>023-039-040-282000-
NORTHEAST SOUTH DAKOTA

CITY           SKY/WX    TMP DP  RH WIND       PRES   REMARKS
ABERDEEN       CLOUDY    74  67  78 S8        29.96F
WATERTOWN      SUNNY     76  63  64 S6        29.97F
BROOKINGS      CLOUDY    70  61  73 SE14      29.99S
$$

SDZ017-020-022-023-036>040-048>070-282000-
SOUTHEAST SOUTH DAKOTA

CITY           SKY/WX    TMP DP  RH WIND       PRES   REMARKS
SIOUX FALLS    CLOUDY    70  62  76 E16       29.94S
HURON          MOSUNNY   78  64  61 CALM      29.95F
CHAMBERLAIN    CLOUDY    73  65  77 W3        29.99S
MITCHELL       CLOUDY    77  66  68 NE8       29.97S
YANKTON        CLOUDY    72  63  73 NE13      29.91R
$$

ABBREVIATIONS USED IN REMARKS
   TC - TEMPERATURE IN CELSIUS
  WCI - WIND CHILL INDEX
   HX - HEAT INDEX
  VSB - VISIBILITY




USA.gov is the U.S. government's official web portal to all federal, state and local government web resources and services.